Location: La Silve
(44.2414°N, 5.8889°E)
Time: 04:49:48
(UTC+00:00)

CZ-2C R/B - Pass Details

Date: 01 December 2020
Orbit: 705 x 907 km, 98.1° (Epoch: 24 January)

Event Time Altitude Azimuth Distance (km) Brightness Sun altitude
Rises 17:14:03 0° 136° (SE) 3,220 6.0 -13.1°
Reaches altitude 10° 17:16:37 10° 126° (SE) 2,268 5.1 -13.6°
Maximum altitude 17:20:51 29° 67° (ENE) 1,323 3.7 -14.3°
Drops below altitude 10° 17:24:59 10° 8° (N) 2,208 5.1 -15.0°
Sets 17:27:27 0° 357° (N) 3,119 6.0 -15.4°
